Tracking 31030 objects as of 16-Jul-2025
HD Live streaming from Space Station
objects crossing your sky now

IRIDIUM 33 DEB

Track IRIDIUM 33 DEB now!
10-day predictions


NORAD ID: 35616
Int'l Code: 1997-051QN
Perigee: 637.8 km
Apogee: 653.6 km
Inclination: 86.4 °
Period: 97.5 minutes
Semi major axis: 7016 km
RCS: 0.0074 m2 (small)
Launch date: September 14, 1997
Source: United States (US)
Launch site: TYURATAM MISSILE AND SPACE COMPLEX (TTMTR)

Note: This is SATELLITE DEBRIS
Your satellite tracking list
Your tracking list is empty




NASA's NSSDC Master Catalog

Two Line Element Set (TLE):
1 35616U 97051QN  25195.85729686  .00005582  00000-0  78637-3 0  9990
2 35616  86.3530  54.3120 0011283   4.6781 355.4542 14.77085340853445
Source of the keplerian elements: AFSPC